Location: Aix-en-Ergny
(50.5839°N, 1.9996°E)
Time: 05:23:06
(UTC+00:00)

CZ-2C R/B - Pass Details

Date: 23 October 2019
Orbit: 668 x 784 km, 98.1° (Epoch: 20 November)

Event Time Altitude Azimuth Distance (km) Brightness Sun altitude
Rises 05:05:50 0° 10° (N) 3,288 5.9 -13.5°
Reaches altitude 10° 05:08:14 10° 5° (N) 2,355 5.1 -13.2°
Maximum altitude 05:13:13 49° 292° (WNW) 1,010 2.7 -12.4°
Drops below altitude 10° 05:18:08 10° 219° (SW) 2,310 4.6 -11.6°
Sets 05:20:28 0° 214° (SW) 3,220 5.4 -11.2°
